Flag for U.S.A. Weather past 2 weeks in Cambridge, Massachusetts, U.S.A.

Now
52 °F

Drizzle. Fog.


Feels Like: 45 °F
Forecast: 49 / 55 °F
Wind: 29 mph from North

Location: Logan International Airport

Current Time: Oct 23, 2014 at 11:34:56 AM

Latest Report: Oct 23, 2014 at 10:54 AM


Visibility: 4 mi

Pressure: 29.61 "Hg

Humidity: 97%

Dew point: 51 °F

Location of CambridgeLocation

Historic Weather in Cambridge — Graph

°F

Cambridge temperature yesterday

Maximum temperature yesterday: 56 °F (at 6:54 AM)
Minimum temperature yesterday: 50 °F (at 11:54 PM)
Average temperature yesterday: 52 °F

Past Weeks' High & Low Weather Summary

 TemperatureHumidityPressure
High81 °F (Oct 15, 1:54 PM)100% (Oct 16, 8:01 AM)30.37 "Hg (Oct 16, 8:01 AM)
Low39 °F (Oct 20, 7:54 AM)31% (Oct 9, 1:54 PM)29.48 "Hg (Oct 18, 4:54 PM)
Average58 °F72%29.96 "Hg
* Reported Oct 8 9:54 AM — Oct 23 9:54 AM, Cambridge, Weather by CustomWeather, © 2014

Note: Actual official high and low records may vary slightly from our data, if they occured in-between our weather recording intervals... More about our weather records

Advertising

Cambridge weather history for previous 24 hours

 ConditionsComfort  
Time TempWeatherWind HumidityBarometerVisibility
9:54 AM
Oct 23
52 °FBroken clouds.30 mph93%29.60 "Hg10 mi
8:54 AM50 °FRain. Fog.23 mph93%29.65 "Hg5 mi
7:54 AM50 °FLight rain. Fog.28 mph96%29.67 "Hg6 mi
7:01 AM50 °FHeavy rain. Fog.18 mph100%29.70 "Hg3 mi
5:54 AM51 °FHeavy rain. Fog.29 mph96%29.66 "Hg3 mi
4:54 AM51 °FLight rain. Fog.23 mph96%29.70 "Hg3 mi
3:54 AM49 °FHeavy rain. Fog.24 mph100%29.71 "Hg1 mi
2:54 AM50 °FHeavy rain. Fog.24 mph96%29.72 "Hg2 mi
1:54 AM50 °FLight rain. Fog.26 mph100%29.75 "Hg3 mi
12:54 AM50 °FHeavy rain. Fog.32 mph96%29.74 "Hg2 mi
11:54 PM
Oct 22
50 °FLight rain. Fog.36 mph100%29.77 "Hg2 mi
10:54 PM51 °FRain. Fog.32 mph92%29.80 "Hg3 mi
9:54 PM51 °FHeavy rain. Fog.35 mph96%29.79 "Hg2 mi
8:54 PM51 °FLight rain. Fog.32 mph96%29.82 "Hg4 mi
7:54 PM52 °FRain. Fog.32 mph93%29.85 "Hg2 mi
6:54 PM52 °FLight rain. Fog.33 mph97%29.86 "Hg2 mi
5:54 PM51 °FDrizzle. Fog.33 mph96%29.87 "Hg1 mi
4:54 PM51 °FDrizzle. Fog.29 mph92%29.89 "Hg1 mi
3:54 PM51 °FDrizzle. Fog.25 mph92%29.90 "Hg2 mi
2:54 PM52 °FLight rain. Fog.30 mph93%29.93 "Hg2 mi
1:54 PM52 °FDrizzle. Fog.21 mph93%29.94 "Hg2 mi
12:54 PM52 °FDrizzle. Fog.25 mph93%29.96 "Hg2 mi
11:54 AM52 °FDrizzle. Fog.23 mph93%29.98 "Hg2 mi
Weather by CustomWeather, © 2014

See weather overviewHow to use our weather pages